When you browse on this site, cookies collect data to enhance your experience and personalize the content and advertising you see.
Visit our Privacy Policy to learn more. By continuing to use the site, you agree to this use of cookies and data.
  • In Sweden
  • List of Countries
  • For 7 days
  • Water Temperature
  • Weather Map
  • Weather Widgets
  • user-avatar
    Login

    Hourly Weather Swierczyn

    Today, 25 February, Tuesday

    Time Temperature Precipitation Wind Pressure Humidity
    00:00 0°C° 0.3 mm 4 mps 743 mmHg 90%
    01:00 0°C° 0 mm 4 mps 742 mmHg 95%
    02:00 0°C° 0.4 mm 4 mps 741 mmHg 95%
    03:00 0°C° 0.4 mm 5 mps 740 mmHg 96%
    04:00 0°C° 0.4 mm 5 mps 739 mmHg 96%
    05:00 0°C° 0.2 mm 5 mps 738 mmHg 96%
    06:00 +1°C° 0.2 mm 5 mps 738 mmHg 96%
    07:00 +1°C° 0 mm 4 mps 737 mmHg 94%
    08:00 +3°C° 0.2 mm 5 mps 737 mmHg 92%
    09:00 +4°C° 0.2 mm 6 mps 737 mmHg 90%
    10:00 +6°C° 0.2 mm 7 mps 736 mmHg 87%
    11:00 +8°C° 0.1 mm 7 mps 736 mmHg 80%
    12:00 +9°C° 0.1 mm 7 mps 736 mmHg 72%
    13:00 +10°C° 0.1 mm 8 mps 736 mmHg 65%
    14:00 +10°C° 0.1 mm 7 mps 735 mmHg 66%
    15:00 +9°C° 0.1 mm 6 mps 735 mmHg 67%
    16:00 +9°C° 0.1 mm 5 mps 734 mmHg 69%
    17:00 +8°C° 0.3 mm 5 mps 734 mmHg 74%
    18:00 +7°C° 0.3 mm 4 mps 734 mmHg 79%
    19:00 +7°C° 0.3 mm 4 mps 734 mmHg 83%
    20:00 +6°C° 0.1 mm 4 mps 734 mmHg 80%
    21:00 +6°C° 0.1 mm 4 mps 734 mmHg 76%
    22:00 +5°C° 0.1 mm 4 mps 733 mmHg 73%
    23:00 +4°C° 0 mm 4 mps 733 mmHg 76%

    Tomorrow, 26 February, Wednesday

    Time Temperature Precipitation Wind Pressure Humidity
    00:00 +4°C° 0 mm 3 mps 733 mmHg 79%
    01:00 +3°C° 0 mm 3 mps 733 mmHg 82%
    02:00 +2°C° 0 mm 3 mps 733 mmHg 84%
    03:00 +2°C° 0 mm 3 mps 732 mmHg 86%
    04:00 +2°C° 0 mm 3 mps 732 mmHg 89%
    05:00 +2°C° 0 mm 3 mps 732 mmHg 89%
    06:00 +2°C° 0 mm 3 mps 732 mmHg 88%
    07:00 +1°C° 0 mm 3 mps 731 mmHg 88%
    08:00 +1°C° 0 mm 4 mps 731 mmHg 84%
    09:00 +2°C° 0 mm 5 mps 731 mmHg 80%
    10:00 +3°C° 0 mm 6 mps 731 mmHg 75%
    11:00 +3°C° 0 mm 6 mps 731 mmHg 72%
    12:00 +4°C° 0 mm 6 mps 731 mmHg 69%
    13:00 +4°C° 0 mm 6 mps 732 mmHg 66%
    14:00 +5°C° 0 mm 5 mps 732 mmHg 65%
    15:00 +4°C° 0 mm 4 mps 731 mmHg 65%
    16:00 +4°C° 0 mm 4 mps 731 mmHg 64%
    17:00 +4°C° 0 mm 4 mps 732 mmHg 70%
    18:00 +3°C° 0 mm 4 mps 732 mmHg 76%
    19:00 +1°C° 0 mm 4 mps 732 mmHg 82%
    20:00 +1°C° 0.5 mm 4 mps 733 mmHg 85%
    21:00 0°C° 0.5 mm 4 mps 733 mmHg 88%
    22:00 0°C° 0.5 mm 5 mps 733 mmHg 91%
    23:00 0°C° 0 mm 5 mps 733 mmHg 89%

    Day after tomorrow, 27 February, Thursday

    Time Temperature Precipitation Wind Pressure Humidity
    00:00 0°C° 0 mm 5 mps 734 mmHg 87%
    01:00 -1°C° 0 mm 5 mps 734 mmHg 86%
    02:00 -1°C° 0 mm 5 mps 734 mmHg 87%
    03:00 -3°C° 0 mm 6 mps 734 mmHg 88%
    04:00 -3°C° 0 mm 6 mps 734 mmHg 89%
    05:00 -3°C° 0.2 mm 6 mps 735 mmHg 91%
    06:00 -3°C° 0.2 mm 6 mps 736 mmHg 92%
    07:00 -3°C° 0.2 mm 6 mps 736 mmHg 93%
    08:00 -3°C° 0.1 mm 7 mps 737 mmHg 86%
    09:00 -2°C° 0.1 mm 7 mps 737 mmHg 79%
    10:00 -2°C° 0.1 mm 7 mps 738 mmHg 72%
    11:00 -1°C° 0 mm 7 mps 738 mmHg 69%
    12:00 -1°C° 0 mm 7 mps 738 mmHg 66%
    13:00 -1°C° 0 mm 7 mps 738 mmHg 63%
    14:00 -1°C° 0 mm 7 mps 738 mmHg 68%
    15:00 -1°C° 0 mm 6 mps 737 mmHg 72%
    16:00 -1°C° 0 mm 6 mps 737 mmHg 77%
    17:00 0°C° 0 mm 5 mps 737 mmHg 80%
    18:00 -1°C° 0 mm 4 mps 737 mmHg 83%
    19:00 -1°C° 0 mm 3 mps 736 mmHg 85%
    20:00 -1°C° 0 mm 3 mps 736 mmHg 85%
    21:00 -1°C° 0 mm 3 mps 736 mmHg 85%
    22:00 -1°C° 0 mm 2 mps 735 mmHg 85%
    23:00 -1°C° 0 mm 2 mps 735 mmHg 85%

    28 February, Friday

    Time Temperature Precipitation Wind Pressure Humidity
    00:00 -1°C° 0 mm 2 mps 735 mmHg 84%
    01:00 -1°C° 0 mm 2 mps 735 mmHg 84%
    02:00 -1°C° 0 mm 2 mps 734 mmHg 84%
    03:00 -1°C° 0 mm 2 mps 734 mmHg 84%
    04:00 -1°C° 0 mm 2 mps 734 mmHg 84%
    05:00 -1°C° 0 mm 2 mps 734 mmHg 86%
    06:00 -1°C° 0 mm 2 mps 735 mmHg 87%
    07:00 -1°C° 0 mm 3 mps 735 mmHg 89%
    08:00 -1°C° 0.1 mm 3 mps 736 mmHg 90%
    09:00 0°C° 0.1 mm 3 mps 737 mmHg 90%
    10:00 -1°C° 0.1 mm 4 mps 738 mmHg 91%
    11:00 0°C° 0.3 mm 4 mps 739 mmHg 89%
    12:00 0°C° 0.3 mm 4 mps 739 mmHg 86%
    13:00 0°C° 0.3 mm 4 mps 740 mmHg 84%
    14:00 0°C° 0 mm 4 mps 741 mmHg 81%
    15:00 +1°C° 0 mm 3 mps 741 mmHg 79%
    16:00 +1°C° 0 mm 3 mps 742 mmHg 76%
    17:00 +1°C° 0 mm 3 mps 742 mmHg 80%
    18:00 +1°C° 0 mm 3 mps 743 mmHg 83%
    19:00 0°C° 0 mm 3 mps 743 mmHg 86%
    20:00 0°C° 0 mm 3 mps 743 mmHg 88%
    21:00 -1°C° 0 mm 3 mps 743 mmHg 89%
    22:00 -1°C° 0 mm 3 mps 743 mmHg 90%
    23:00 -1°C° 0.1 mm 3 mps 744 mmHg 91%

    29 February, Saturday

    Time Temperature Precipitation Wind Pressure Humidity
    00:00 -2°C° 0.1 mm 4 mps 744 mmHg 93%
    01:00 -2°C° 0.1 mm 4 mps 744 mmHg 94%
    02:00 -2°C° 0 mm 4 mps 744 mmHg 91%
    03:00 -2°C° 0 mm 4 mps 745 mmHg 88%
    04:00 -2°C° 0 mm 4 mps 745 mmHg 84%
    05:00 -2°C° 0 mm 3 mps 746 mmHg 85%
    06:00 -2°C° 0 mm 3 mps 746 mmHg 86%
    07:00 -2°C° 0 mm 2 mps 747 mmHg 87%
    08:00 -2°C° 0 mm 2 mps 747 mmHg 79%
    09:00 -1°C° 0 mm 2 mps 748 mmHg 71%
    10:00 +2°C° 0 mm 1 mps 748 mmHg 63%
    11:00 +3°C° 0 mm 1 mps 748 mmHg 60%
    12:00 +3°C° 0 mm 1 mps 748 mmHg 58%
    13:00 +4°C° 0 mm 1 mps 748 mmHg 55%
    14:00 +3°C° 0 mm 2 mps 747 mmHg 58%
    15:00 +3°C° 0 mm 2 mps 747 mmHg 60%
    16:00 +2°C° 0 mm 2 mps 746 mmHg 62%
    17:00 +1°C° 0 mm 3 mps 746 mmHg 68%
    18:00 0°C° 0 mm 3 mps 746 mmHg 73%
    19:00 -1°C° 0 mm 3 mps 746 mmHg 78%
    20:00 -2°C° 0 mm 4 mps 745 mmHg 77%
    21:00 -2°C° 0 mm 5 mps 745 mmHg 76%
    22:00 -2°C° 0 mm 5 mps 744 mmHg 75%
    23:00 -3°C° 0 mm 6 mps 744 mmHg 75%

    1 March, Sunday

    Time Temperature Precipitation Wind Pressure Humidity
    00:00 -3°C° 0 mm 6 mps 743 mmHg 74%
    01:00 -2°C° 0 mm 6 mps 743 mmHg 74%
    02:00 -2°C° 0 mm 6 mps 742 mmHg 77%
    03:00 -2°C° 0 mm 7 mps 741 mmHg 79%
    04:00 -2°C° 0 mm 7 mps 741 mmHg 82%
    05:00 -1°C° 0.7 mm 6 mps 741 mmHg 86%
    06:00 -1°C° 0.7 mm 6 mps 740 mmHg 90%
    07:00 +1°C° 0.7 mm 5 mps 740 mmHg 94%
    08:00 +2°C° 0.1 mm 6 mps 741 mmHg 89%
    09:00 +2°C° 0.1 mm 6 mps 741 mmHg 83%
    10:00 +3°C° 0.1 mm 6 mps 741 mmHg 78%
    11:00 +3°C° 0 mm 6 mps 742 mmHg 75%
    12:00 +4°C° 0 mm 6 mps 742 mmHg 71%
    13:00 +4°C° 0 mm 6 mps 742 mmHg 68%
    14:00 +5°C° 0 mm 5 mps 742 mmHg 68%
    15:00 +3°C° 0 mm 5 mps 742 mmHg 69%
    16:00 +4°C° 0 mm 4 mps 742 mmHg 69%
    17:00 +3°C° 0 mm 4 mps 742 mmHg 73%
    18:00 +3°C° 0 mm 3 mps 743 mmHg 76%
    19:00 +2°C° 0 mm 3 mps 743 mmHg 80%
    20:00 +2°C° 0 mm 3 mps 743 mmHg 80%
    21:00 +1°C° 0 mm 3 mps 743 mmHg 81%
    22:00 +1°C° 0 mm 3 mps 743 mmHg 82%
    23:00 +1°C° 0 mm 3 mps 743 mmHg 83%
    Show more